Location: Bray
(49.9408°N, 2.7185°E)
Time: 18:45:55
(UTC+00:00)

Daily predictions for brighter satellites

Satellite Brightness Start Highest point End
(mag) Time Altitude Azimuth Time Altitude Azimuth Time Altitude Azimuth
Cosmos 2266 Rocket 4.0 16:57:42 10° N 17:03:57 81° E 17:10:17 10° SSE
Cosmos 1809 Rocket 4.5 16:58:01 10° N 17:04:11 71° ENE 17:10:16 10° SSE
CZ-4C R/B 3.9 16:59:46 10° NW 17:04:42 25° N 17:10:24 10° NE
COSMOS 2487 2.8 17:02:50 10° NNW 17:06:16 69° WSW 17:09:40 10° SSE
Cosmos 1328 3.7 17:03:12 10° N 17:07:10 77° E 17:11:07 10° SSE
Cosmos 2219 3.7 17:01:45 10° NNW 17:07:11 40° NE 17:12:35 10° ESE
Cosmos 1939 Rocket 3.7 17:04:18 10° SE 17:07:45 29° ENE 17:11:11 10° N
Helios 1A Rocket 4.0 17:06:37 10° ESE 17:09:58 25° ENE 17:13:19 10° N
Cosmos 1110 Rocket 4.3 17:06:17 10° S 17:11:16 46° ESE 17:16:15 10° NE
Cosmos 1602 Rocket 4.4 17:09:57 10° NNW 17:14:23 57° W 17:18:44 10° S
Cosmos 1943 Rocket 4.0 17:11:31 10° W 17:16:10 27° NW 17:20:50 10° NNE
Cosmos 44 4.0 17:13:37 10° S 17:17:35 31° ESE 17:21:46 10° NE
Aureole 3 Rocket 4.2 17:15:32 10° SE 17:18:56 25° E 17:23:16 10° NNE
CZ-2C R/B 4.1 17:14:30 10° ESE 17:19:24 30° ENE 17:24:12 10° N
Envisat 4.0 17:15:56 10° S 17:20:52 52° W 17:25:52 10° NNW
NOSS 2-2 (C) 4.4 17:15:52 10° NW 17:21:02 64° NE 17:28:13 10° SE
Cosmos 1953 Rocket 3.7 17:19:11 10° N 17:23:31 52° ENE 17:27:51 10° SSE
Cosmos 1726 4.5 17:21:59 10° SW 17:25:11 26° WNW 17:28:24 10° NNW
Cosmos 2058 4.3 17:22:49 10° NNE 17:25:41 18° ENE 17:28:32 10° ESE
ATLAS 5 CENTAUR R/B 3.2 17:22:33 10° W 17:26:20 28° NNW 17:30:37 10° NNE
FALCON 9 DEB 3.6 17:23:52 10° W 17:27:13 49° N 17:30:07 13° ENE
Cosmos 2058 Rocket 3.9 17:23:36 10° SSE 17:27:30 30° E 17:31:26 10° NNE
YAOGAN 6 4.2 17:26:11 10° S 17:29:39 40° W 17:33:10 10° NNW
CZ-4 R/B 2.2 17:26:19 10° SE 17:29:39 28° ENE 17:32:59 10° N
CZ-4B R/B 4.0 17:25:03 10° S 17:30:33 58° WSW 17:36:01 10° NNW
Lacrosse 5 2.7 17:26:04 10° W 17:30:53 42° NNW 17:35:34 11° ENE
Cosmos 1400 Rocket 3.7 17:27:23 10° SSE 17:30:56 28° E 17:34:28 10° NNE
ADEOS Rocket 3.7 17:26:13 10° N 17:32:27 67° WNW 17:39:21 10° SSW
ERBS 3.8 17:32:09 10° WNW 17:35:04 27° NNW 17:37:46 11° NE
ARGOS 4.3 17:32:38 10° ESE 17:36:47 23° ENE 17:40:58 10° N
USA 281 4.1 17:32:34 10° S 17:38:58 55° WSW 17:45:26 10° NNW
Cosmos 1908 4.3 17:36:31 10° SSW 17:40:14 47° WNW 17:44:01 10° N
Cosmos 1656 4.4 17:37:33 10° SSE 17:42:20 30° ESE 17:47:12 10° NE
Cosmos 2227 Rocket 2.3 17:37:09 10° NNW 17:42:43 53° NE 17:48:14 10° SE
FALCON 9 DEB 4.1 17:40:34 10° SSW 17:43:24 28° SE 17:44:57 19° E
Cosmos 292 Rocket 3.8 17:40:33 10° S 17:45:15 60° ESE 17:50:02 10° NNE
Cosmos 1892 3.4 17:42:06 10° N 17:45:40 33° ENE 17:49:14 10° SE
CZ-4B R/B 1.5 17:44:14 10° N 17:47:29 72° WNW 17:50:38 10° SSW
USA 305 3.1 17:44:02 10° WNW 17:48:18 59° NNE 17:51:12 20° E
FALCON 9 DEB 3.9 17:45:49 10° SSW 17:48:43 32° SE 17:50:05 22° E
COSMO-SKYMED 1 2.7 17:45:14 10° NNE 17:49:31 54° E 17:53:46 10° S
Cosmos 2263 Rocket 3.8 17:45:45 10° N 17:49:33 18° NE 17:51:44 15° ENE
CSL-04 Rocket 4.2 17:47:44 10° SE 17:52:49 38° ENE 17:57:53 10° N
H-2A R/B 3.9 17:49:19 10° N 17:53:03 31° WNW 17:56:42 10° SW
SL-4 R/B 1.8 17:49:40 10° W 17:53:12 65° N 17:55:22 23° ENE
GEOS 3 Rocket 3.8 17:48:39 11° ESE 17:53:36 57° NE 17:58:54 10° NW
USA 306 3.1 17:50:24 10° WNW 17:54:40 61° NNE 17:57:16 22° E
Timation 2 Rocket 4.3 17:49:09 10° NNW 17:55:43 76° WSW 18:02:30 10° SSE
Cosmos 1346 Rocket 3.4 17:53:00 10° N 17:56:41 34° ENE 17:59:45 13° SE
Cosmos 1076 Rocket 4.4 17:53:37 10° N 17:57:15 27° ENE 17:58:50 21° ESE
H-2A R/B 2.6 17:53:24 10° SE 17:58:26 40° ENE 18:03:30 10° N
Cosmos 1300 2.7 17:55:25 10° S 17:59:14 85° W 18:03:05 10° N
CZ-2D R/B 3.1 17:55:35 10° SSE 17:59:22 74° ENE 18:03:11 10° N
FALCON 9 DEB 3.7 17:56:23 10° SW 17:59:24 37° SE 18:00:24 28° ESE
Cosmos 1408 3.3 17:56:42 10° N 18:00:00 31° ENE 18:01:18 24° ESE
Okean O Rocket 3.8 17:57:20 10° SSW 18:01:10 29° W 18:04:59 10° NW
Cosmos 1697 Rocket 3.7 17:58:18 10° SSE 18:02:43 24° ESE 18:04:16 22° ENE
Ariane Rocket 4.3 18:04:43 20° ENE 18:05:09 20° ENE 18:08:50 10° N
YAOGAN 1 2.5 18:02:35 10° SSE 18:06:50 60° ENE 18:11:07 10° N
SL-08 ROCKET BODY 4.4 18:01:59 10° N 18:08:01 61° ENE 18:14:07 10° SSE
Cosmos 1825 3.2 18:06:19 10° N 18:09:07 26° ENE 18:09:07 26° ENE
FALCON 9 DEB 3.3 18:08:54 10° SW 18:12:00 47° SSE 18:12:34 41° ESE
Meteor 2-8 Rocket 4.3 18:08:59 10° S 18:15:05 77° E 18:21:14 10° NNE
Cosmos 1726 Rocket 4.2 18:14:31 10° SSW 18:18:48 58° WNW 18:23:09 10° N
ERS-2 4.1 18:16:28 10° N 18:19:43 30° WNW 18:22:56 10° SW
Cosmos 1689 Rocket 2.4 18:17:08 10° N 18:20:01 63° WNW 18:22:51 10° SSW
Cosmos 1553 Rocket 3.9 18:14:12 10° S 18:20:31 72° E 18:26:46 10° NNE
Cosmos 2297 Rocket 2.4 18:17:10 10° NNW 18:22:50 73° WSW 18:28:27 10° SSE
Cosmos 1340 3.1 18:19:16 10° NNW 18:23:02 63° W 18:26:45 10° S
NOSS 3-4 (A) 4.2 18:17:35 10° NW 18:23:59 44° NNE 18:27:19 28° E
NOSS 3-4 (C) 4.2 18:17:42 10° NW 18:24:05 43° NNE 18:27:24 28° E
Cosmos 1980 Rocket 4.3 18:21:03 10° SE 18:21:06 10° SE 18:21:06 10° SE
In-Cosmos 22 Rocket 4.2 18:20:14 10° NNW 18:25:35 77° W 18:31:01 10° S
SL-08 RB Rocket 4.3 18:28:46 34° ENE 18:28:46 34° ENE 18:32:37 10° N
SeaSat 1 2.5 18:29:14 32° ESE 18:31:19 58° NE 18:36:12 10° NNW
CSL-04 Debris 4.1 18:26:28 10° SSE 18:31:52 76° ENE 18:37:22 10° NNW
Okean-O 3.1 18:28:17 10° S 18:32:40 62° WSW 18:37:06 10° NNW
NOSS 3-3 (A) 4.3 18:30:06 10° S 18:35:28 40° ESE 18:36:52 35° E
NOSS 3-3 (C) 4.3 18:30:11 10° S 18:35:36 40° ESE 18:37:00 35° E
Meteor 2-15 Rocket 4.4 18:30:31 10° S 18:36:33 60° E 18:42:35 10° NNE
USA 307 2.8 18:32:58 10° WNW 18:37:17 85° NNE 18:38:09 56° ESE
SKYMED 2 4.4 18:33:21 10° N 18:37:36 52° WNW 18:41:48 10° SSW
USA 215 3.4 18:36:03 32° E 18:39:06 60° NNE 18:45:32 10° WNW
CRYOSAT 2 4.2 18:37:02 10° N 18:41:55 71° E 18:46:45 10° S
USA 308 2.8 18:37:49 10° WNW 18:42:07 89° NNE 18:42:48 63° ESE
Cosmos 968 Rocket 3.8 18:38:48 10° NNW 18:44:00 68° WSW 18:49:08 10° S
Cosmos 1745 Rocket 4.0 18:37:49 10° N 18:44:09 87° WSW 18:50:30 10° S
Helios 1A Rocket 4.3 18:41:05 10° SSW 18:44:57 39° W 18:48:50 10° NNW
HJ-1C 3.9 18:46:16 52° N 18:46:16 52° N 18:48:54 10° NNW
ATLAS 2AS CENTAUR R/B 3.3 18:38:51 10° NW 18:46:13 47° NNE 18:48:35 36° ENE
Cosmos 1455 4.3 18:44:33 10° S 18:45:23 16° S 18:45:23 16° S
Cosmos 2151 4.4 18:45:07 10° N 18:47:10 25° NNE 18:47:10 25° NNE
Meteor 2-15 4.4 18:43:17 10° S 18:49:27 89° E 18:55:37 10° N
Cosmos 2219 4.3 18:46:00 10° NW 18:51:24 43° WSW 18:56:48 10° S
CZ-4C R/B 3.6 18:49:06 10° NW 18:55:09 36° NNE 18:57:03 31° NE
SJ-11-01 4.4 18:51:59 11° S 18:56:29 71° WSW 19:01:11 10° NNW
MOS 1 Rocket 3.2 18:53:00 10° NNE 18:57:39 86° ESE 19:02:33 10° SSW
Cosmos 44 4.0 18:54:12 10° WSW 18:58:38 47° NW 19:01:00 26° NNE
CZ-2C R/B 3.9 18:53:17 10° S 18:58:59 56° W 19:04:33 10° NNW
Cosmos 220 Rocket 4.2 18:56:02 10° SSW 18:59:40 60° S 18:59:40 60° S
Cosmos 2082 3.8 18:55:16 10° NNW 19:01:02 78° WSW 19:03:45 33° SSE
Cosmos 2058 3.7 18:58:56 10° NNW 19:02:54 50° W 19:06:04 15° SSW
FALCON 9 DEB 4.5 19:01:06 10° WNW 19:03:22 38° NW 19:03:22 38° NW
CZ-4 R/B 3.3 19:01:14 10° SSW 19:04:39 29° W 19:08:03 10° NW
Meteor 2-10 Rocket 3.7 19:04:11 10° SSW 19:09:29 69° WNW 19:14:37 10° N
Cosmos 1503 Rocket 4.2 19:04:23 10° NNW 19:09:34 68° WSW 19:11:33 38° S
ATLAS 5 CENTAUR R/B 3.9 19:09:16 10° NW 19:12:34 18° N 19:13:43 17° NNE
Cosmos 1709 Rocket 3.9 19:07:39 10° N 19:14:04 90° WNW 19:17:52 27° S
Lacrosse 5 2.7 19:09:57 10° WNW 19:14:44 40° N 19:14:46 40° N
Timation 1 Rocket 4.3 19:09:05 10° NNW 19:15:08 88° WSW 19:16:23 59° SSE
Cosmos 2369 3.6 19:09:34 10° SSW 19:14:49 67° SSE 19:14:49 67° SSE
BREEZE-M R/B 4.0 19:10:48 10° W 19:15:19 76° SSW 19:16:54 55° SE
ARGOS 3.4 19:13:21 25° S 19:16:34 69° WSW 19:22:01 10° NNW
Cosmos 1354 Rocket 4.3 19:15:18 10° NNW 19:20:30 63° WSW 19:21:46 48° SSW
Cosmos 1844 Rocket 4.5 19:19:20 10° N 19:22:10 18° NNE 19:22:10 18° NNE
Cosmos 1656 4.3 19:20:16 10° SW 19:25:43 53° NW 19:29:33 20° NNE
Cosmos 2227 Rocket 3.9 19:21:38 10° NW 19:26:30 30° WSW 19:31:21 10° SSW
USA 305 4.0 19:24:10 10° WNW 19:27:20 41° W 19:27:20 41° W
SJ 16-02 3.9 19:26:01 10° N 19:26:22 12° N 19:26:22 12° N
Cosmos 883 Rocket 4.5 19:25:57 10° SSW 19:32:07 78° W 19:38:17 10° N
SL-4 R/B 3.8 19:29:13 10° WNW 19:30:57 27° WNW 19:30:57 27° WNW
Cosmos 2315 Rocket 3.8 19:26:45 10° S 19:32:58 89° E 19:39:13 10° N
Resurs 01 Rocket 4.3 19:38:27 10° N 19:38:27 10° N 19:38:30 10° N
USA 306 4.3 19:30:32 10° WNW 19:33:25 36° W 19:33:25 36° W
Cosmos 2263 Rocket 2.7 19:28:59 10° NNW 19:33:26 50° N 19:33:26 50° N
Cosmos 1992 Rocket 4.4 19:30:45 10° SW 19:35:54 60° WNW 19:36:36 55° NNW
H-2A R/B 3.5 19:32:54 10° SSW 19:37:53 37° W 19:42:56 10° NNW
Ariane Rocket 3.7 19:44:55 50° NNW 19:44:55 50° NNW 19:48:44 10° NNW
Cosmos 1697 Rocket 3.0 19:40:40 10° SW 19:46:05 64° WNW 19:46:05 64° WNW
SeaSat 1 4.2 20:09:02 26° WSW 20:09:07 26° WSW 20:13:14 10° NW
NOSS 3-4 (A) 4.0 20:08:27 10° NW 20:14:46 66° W 20:14:46 66° W
NOSS 3-4 (C) 4.0 20:08:34 10° NW 20:14:51 66° W 20:14:51 66° W
USA 215 3.7 20:23:24 56° W 20:23:24 56° W 20:28:39 10° WNW
ATLAS 2AS CENTAUR R/B 3.4 20:30:09 10° NW 20:36:01 52° WNW 20:36:01 52° WNW
CZ-4C R/B 3.6 20:37:34 10° NW 20:42:14 48° NW 20:42:14 48° NW
